N894MA KBHM-

Flight info

Callsign N894MA
Flight time N/A
Altitude VFR/040
Route NORTH
Aircraft P28A/L-DOV/C

Departure

Time 2026-05-06 00:54
Airport Birmingham-Shuttlesworth International Airport (KBHM)

Arrival

Time N/A
Airport -
Time Latitude Longitude Altitude Speed Heading
2026-05-06 00:40 33.56587 -86.74236 632 ft 0 kts 166°
2026-05-06 00:43 33.56586 -86.74229 632 ft 4 kts 32°
2026-05-06 00:43 33.56568 -86.74263 630 ft 11 kts 236°
2026-05-06 00:44 33.56603 -86.74356 628 ft 14 kts 317°
2026-05-06 00:44 33.56641 -86.74448 627 ft 10 kts 274°
2026-05-06 00:44 33.56641 -86.74531 626 ft 10 kts 269°
2026-05-06 00:44 33.56672 -86.74590 627 ft 9 kts 358°
2026-05-06 00:45 33.56746 -86.74587 628 ft 14 kts 15°
2026-05-06 00:45 33.56822 -86.74478 630 ft 19 kts 55°
2026-05-06 00:45 33.56889 -86.74377 634 ft 0 kts 24°
2026-05-06 00:45 33.56915 -86.74370 635 ft 8 kts 342°
2026-05-06 00:46 33.56935 -86.74383 635 ft 0 kts 327°
2026-05-06 00:48 33.57009 -86.74443 637 ft 27 kts 325°
2026-05-06 00:49 33.57192 -86.74583 645 ft 29 kts 329°
2026-05-06 00:49 33.57229 -86.74609 648 ft 9 kts 328°
2026-05-06 00:49 33.57235 -86.74614 648 ft 0 kts 328°
2026-05-06 00:52 33.57273 -86.74643 651 ft 23 kts 330°
2026-05-06 00:53 33.57196 -86.74722 646 ft 38 kts 178°
2026-05-06 00:53 33.56765 -86.74717 672 ft 77 kts 174°
2026-05-06 00:53 33.56210 -86.74704 860 ft 80 kts 176°
2026-05-06 00:53 33.55654 -86.74675 1075 ft 79 kts 174°
2026-05-06 00:54 33.55109 -86.74641 1293 ft 78 kts 175°
2026-05-06 00:54 33.54586 -86.74648 1505 ft 76 kts 179°
2026-05-06 00:54 33.54062 -86.74670 1712 ft 76 kts 177°
2026-05-06 00:54 33.53540 -86.74674 1912 ft 75 kts 173°
2026-05-06 00:55 33.53019 -86.74604 2097 ft 77 kts 172°
2026-05-06 00:55 33.52525 -86.74444 2310 ft 73 kts 129°
2026-05-06 00:55 33.52438 -86.73856 2476 ft 76 kts 73°
2026-05-06 00:55 33.52684 -86.73315 2663 ft 75 kts 37°
2026-05-06 00:56 33.53163 -86.73062 2833 ft 77 kts
2026-05-06 00:56 33.53699 -86.73067 3015 ft 78 kts 353°
2026-05-06 00:56 33.54231 -86.73119 3207 ft 76 kts 354°
2026-05-06 00:56 33.54753 -86.73149 3403 ft 74 kts 345°
2026-05-06 00:57 33.55304 -86.73234 3517 ft 82 kts 353°
2026-05-06 00:57 33.55861 -86.73282 3560 ft 79 kts 353°
2026-05-06 00:57 33.56419 -86.73352 3596 ft 80 kts 353°
2026-05-06 00:57 33.56979 -86.73387 3637 ft 82 kts 355°
2026-05-06 00:58 33.57567 -86.73418 3653 ft 86 kts 359°
2026-05-06 00:58 33.58184 -86.73401 3659 ft 90 kts 359°
2026-05-06 00:58 33.58842 -86.73383 3629 ft 97 kts
2026-05-06 00:58 33.59542 -86.73354 3558 ft 103 kts
2026-05-06 00:59 33.60238 -86.73315 3561 ft 98 kts
2026-05-06 00:59 33.60922 -86.73328 3556 ft 95 kts 357°
2026-05-06 00:59 33.61583 -86.73357 3549 ft 92 kts 353°
2026-05-06 00:59 33.62219 -86.73388 3533 ft 93 kts
2026-05-06 01:00 33.62883 -86.73349 3523 ft 94 kts
2026-05-06 01:00 33.63527 -86.73362 3530 ft 94 kts 355°
2026-05-06 01:00 33.64194 -86.73419 3522 ft 96 kts 355°
2026-05-06 01:00 33.64847 -86.73510 3543 ft 94 kts 352°
2026-05-06 01:01 33.65519 -86.73576 3537 ft 96 kts 356°
2026-05-06 01:01 33.66181 -86.73586 3553 ft 95 kts 358°
2026-05-06 01:01 33.66843 -86.73612 3557 ft 95 kts 358°
2026-05-06 01:01 33.67509 -86.73642 3568 ft 95 kts 356°
2026-05-06 01:02 33.68174 -86.73667 3571 ft 95 kts 356°
2026-05-06 01:02 33.68834 -86.73696 3582 ft 95 kts 358°
2026-05-06 01:02 33.69502 -86.73721 3588 ft 95 kts 358°
2026-05-06 01:02 33.70163 -86.73737 3593 ft 95 kts 359°
2026-05-06 01:03 33.70835 -86.73746 3605 ft 95 kts 359°
2026-05-06 01:03 33.71498 -86.73749 3608 ft 95 kts 358°
2026-05-06 01:03 33.72160 -86.73762 3618 ft 95 kts 358°
2026-05-06 01:03 33.72822 -86.73807 3626 ft 95 kts 355°
2026-05-06 01:04 33.73492 -86.73871 3630 ft 95 kts 353°
2026-05-06 01:04 33.74152 -86.73929 3638 ft 95 kts 357°
2026-05-06 01:04 33.74813 -86.73928 3641 ft 95 kts 360°
2026-05-06 01:04 33.75478 -86.73884 3632 ft 96 kts
2026-05-06 01:05 33.76131 -86.73849 3664 ft 94 kts 349°
2026-05-06 01:05 33.76784 -86.74004 3664 ft 94 kts 347°
2026-05-06 01:05 33.77420 -86.74184 3672 ft 95 kts 343°
2026-05-06 01:05 33.78054 -86.74403 3686 ft 94 kts 345°
2026-05-06 01:06 33.78693 -86.74532 3701 ft 94 kts 349°
2026-05-06 01:06 33.79285 -86.74873 3726 ft 91 kts 327°
2026-05-06 01:06 33.79899 -86.75151 3682 ft 97 kts 348°
2026-05-06 01:06 33.80561 -86.75310 3684 ft 97 kts 346°
2026-05-06 01:07 33.81192 -86.75553 3720 ft 93 kts 339°
2026-05-06 01:07 33.81814 -86.75826 3705 ft 96 kts 337°
2026-05-06 01:07 33.82418 -86.76135 3735 ft 94 kts 337°
2026-05-06 01:07 33.83043 -86.76405 3728 ft 95 kts 340°
2026-05-06 01:08 33.83669 -86.76661 3743 ft 94 kts 339°
2026-05-06 01:08 33.84310 -86.76856 3727 ft 97 kts
2026-05-06 01:08 33.84937 -86.76553 3687 ft 99 kts 43°
2026-05-06 01:08 33.85228 -86.75812 3692 ft 98 kts 79°
2026-05-06 01:09 33.85350 -86.75037 3728 ft 95 kts 76°
2026-05-06 01:09 33.85549 -86.74267 3712 ft 97 kts 63°
2026-05-06 01:09 33.85873 -86.73566 3726 ft 95 kts 68°
2026-05-06 01:09 33.85926 -86.72775 3722 ft 95 kts 103°
2026-05-06 01:10 33.85561 -86.72112 3707 ft 97 kts 143°
2026-05-06 01:10 33.84922 -86.71849 3708 ft 96 kts 170°
2026-05-06 01:10 33.84300 -86.71629 3734 ft 95 kts 154°
2026-05-06 01:10 33.83722 -86.71215 3702 ft 98 kts 144°
2026-05-06 01:11 33.83171 -86.70701 3679 ft 100 kts 144°
2026-05-06 01:11 33.82557 -86.70281 3636 ft 102 kts 160°
2026-05-06 01:11 33.81874 -86.70050 3639 ft 100 kts 166°
2026-05-06 01:11 33.81204 -86.69940 3673 ft 96 kts 172°
2026-05-06 01:12 33.80532 -86.69823 3653 ft 98 kts 170°
2026-05-06 01:12 33.79845 -86.69795 3645 ft 97 kts 186°
2026-05-06 01:12 33.79181 -86.69996 3634 ft 99 kts 198°
2026-05-06 01:12 33.78543 -86.70283 3625 ft 99 kts 198°
2026-05-06 01:13 33.77865 -86.70509 3597 ft 101 kts 195°
2026-05-06 01:13 33.77229 -86.70829 3622 ft 97 kts 209°
2026-05-06 01:13 33.76629 -86.71191 3626 ft 96 kts 199°
2026-05-06 01:13 33.75973 -86.71297 3640 ft 95 kts 177°
2026-05-06 01:14 33.74641 -86.71164 3625 ft 97 kts 188°
2026-05-06 01:14 33.73973 -86.71309 3634 ft 95 kts 185°
2026-05-06 01:14 33.73315 -86.71250 3631 ft 96 kts 169°
2026-05-06 01:15 33.72649 -86.71188 3634 ft 95 kts 181°
2026-05-06 01:15 33.71992 -86.71308 3570 ft 96 kts 197°
2026-05-06 01:15 33.71357 -86.71536 3505 ft 92 kts 193°
2026-05-06 01:15 33.70744 -86.71708 3434 ft 91 kts 190°
2026-05-06 01:16 33.70121 -86.71830 3354 ft 90 kts 188°
2026-05-06 01:16 33.69494 -86.71960 3266 ft 92 kts 192°
2026-05-06 01:16 33.68902 -86.72257 3201 ft 92 kts 210°
2026-05-06 01:16 33.68351 -86.72625 3162 ft 89 kts 208°
2026-05-06 01:17 33.67801 -86.72987 3109 ft 89 kts 209°
2026-05-06 01:17 33.67256 -86.73360 3008 ft 90 kts 212°
2026-05-06 01:17 33.66725 -86.73759 2933 ft 88 kts 201°
2026-05-06 01:17 33.66114 -86.73917 2813 ft 92 kts 187°
2026-05-06 01:18 33.65447 -86.74030 2612 ft 99 kts 188°
2026-05-06 01:18 33.64777 -86.74133 2404 ft 95 kts 187°
2026-05-06 01:18 33.64136 -86.74236 2239 ft 88 kts 187°
2026-05-06 01:18 33.63534 -86.74307 2102 ft 83 kts 184°
2026-05-06 01:19 33.62949 -86.74300 1997 ft 82 kts 176°
2026-05-06 01:19 33.62371 -86.74284 1894 ft 83 kts 177°
2026-05-06 01:19 33.61794 -86.74251 1804 ft 83 kts 178°
2026-05-06 01:19 33.61223 -86.74107 1706 ft 84 kts 163°
2026-05-06 01:20 33.60663 -86.73933 1645 ft 82 kts 164°
2026-05-06 01:20 33.60131 -86.73695 1590 ft 81 kts 155°
2026-05-06 01:20 33.59666 -86.73342 1561 ft 78 kts 142°
2026-05-06 01:20 33.59226 -86.72961 1536 ft 76 kts 143°
2026-05-06 01:21 33.58797 -86.72597 1518 ft 75 kts 143°
2026-05-06 01:21 33.58373 -86.72237 1449 ft 72 kts 149°
2026-05-06 01:21 33.57945 -86.72223 1326 ft 66 kts 231°
2026-05-06 01:21 33.57796 -86.72778 1159 ft 73 kts 256°
2026-05-06 01:22 33.57621 -86.73368 1015 ft 72 kts 245°
2026-05-06 01:22 33.57365 -86.73870 819 ft 69 kts 237°
2026-05-06 01:22 33.57108 -86.74327 661 ft 62 kts 236°
2026-05-06 01:22 33.56895 -86.74696 632 ft 44 kts 238°
2026-05-06 01:23 33.56708 -86.74853 627 ft 23 kts 178°
2026-05-06 01:23 33.56691 -86.74853 627 ft 0 kts 181°
2026-05-06 01:25 33.56687 -86.74853 627 ft 5 kts 176°
2026-05-06 01:25 33.56599 -86.74854 623 ft 12 kts 190°
2026-05-06 01:26 33.56556 -86.74908 621 ft 12 kts 312°
2026-05-06 01:26 33.56606 -86.74973 622 ft 0 kts 316°
2026-05-06 01:27 33.56607 -86.74974 622 ft 0 kts 311°
2026-05-06 01:27 33.56601 -86.74966 622 ft 0 kts 91°
2026-05-06 01:28 33.56603 -86.74949 622 ft 9 kts 91°
2026-05-06 01:28 33.56549 -86.74882 621 ft 13 kts 150°
2026-05-06 01:28 33.56494 -86.74827 620 ft 0 kts 134°
2026-05-06 01:29 33.56407 -86.74714 620 ft 35 kts 116°
2026-05-06 01:29 33.56362 -86.74588 622 ft 8 kts 168°
2026-05-06 01:29 33.56289 -86.74587 621 ft 0 kts 178°
2026-05-06 01:29 33.56230 -86.74526 623 ft 30 kts 136°
2026-05-06 01:30 33.56104 -86.74477 624 ft 0 kts 172°